When you browse on this site, cookies collect data to enhance your experience and personalize the content and advertising you see.
Visit our Privacy Policy to learn more. By continuing to use the site, you agree to this use of cookies and data.
  • In Portugal
  • List of Countries
  • For 7 days
  • Water Temperature
  • Weather Map
  • Weather Widgets
  • user-avatar
    Login

    Hourly Weather Labutino

    Today, 24 January, Friday

    Time Temperature Precipitation Wind Pressure Humidity
    00:00 -9°C° 0 mm 4 mps 744 mmHg 82%
    01:00 -8°C° 0 mm 4 mps 744 mmHg 83%
    02:00 -7°C° 0 mm 3 mps 744 mmHg 84%
    03:00 -7°C° 0 mm 3 mps 744 mmHg 85%
    04:00 -8°C° 0 mm 4 mps 744 mmHg 84%
    05:00 -8°C° 0 mm 4 mps 743 mmHg 84%
    06:00 -8°C° 0 mm 4 mps 743 mmHg 83%
    07:00 -8°C° 0 mm 4 mps 742 mmHg 86%
    08:00 -7°C° 0 mm 5 mps 741 mmHg 88%
    09:00 -7°C° 0 mm 5 mps 741 mmHg 91%
    10:00 -6°C° 0.2 mm 6 mps 740 mmHg 90%
    11:00 -5°C° 0.2 mm 6 mps 739 mmHg 89%
    12:00 -4°C° 0.2 mm 7 mps 739 mmHg 89%
    13:00 -4°C° 0.1 mm 6 mps 738 mmHg 90%
    14:00 -3°C° 0.1 mm 6 mps 737 mmHg 91%
    15:00 -3°C° 0.1 mm 6 mps 737 mmHg 93%
    16:00 -2°C° 0.2 mm 6 mps 736 mmHg 94%
    17:00 -2°C° 0.2 mm 6 mps 735 mmHg 95%
    18:00 -2°C° 0.2 mm 6 mps 735 mmHg 97%
    19:00 -1°C° 0.2 mm 6 mps 734 mmHg 95%
    20:00 -1°C° 0.2 mm 6 mps 734 mmHg 93%
    21:00 +1°C° 0.2 mm 6 mps 734 mmHg 92%
    22:00 +1°C° 0.1 mm 6 mps 734 mmHg 92%
    23:00 0°C° 0.1 mm 5 mps 734 mmHg 92%

    Tomorrow, 25 January, Saturday

    Time Temperature Precipitation Wind Pressure Humidity
    00:00 0°C° 0.1 mm 5 mps 734 mmHg 92%
    01:00 0°C° 0 mm 4 mps 734 mmHg 93%
    02:00 -1°C° 0 mm 4 mps 735 mmHg 94%
    03:00 -1°C° 0 mm 4 mps 735 mmHg 95%
    04:00 -1°C° 0.4 mm 4 mps 734 mmHg 94%
    05:00 -1°C° 0.4 mm 4 mps 734 mmHg 94%
    06:00 -1°C° 0.4 mm 5 mps 734 mmHg 94%
    07:00 -1°C° 0 mm 5 mps 734 mmHg 91%
    08:00 -1°C° 0 mm 5 mps 734 mmHg 89%
    09:00 -1°C° 0 mm 5 mps 734 mmHg 86%
    10:00 -1°C° 0 mm 5 mps 734 mmHg 85%
    11:00 -2°C° 0 mm 6 mps 733 mmHg 84%
    12:00 -2°C° 0 mm 6 mps 733 mmHg 82%
    13:00 -2°C° 0 mm 6 mps 733 mmHg 81%
    14:00 -2°C° 0 mm 7 mps 732 mmHg 79%
    15:00 -2°C° 0 mm 7 mps 732 mmHg 77%
    16:00 -2°C° 0.3 mm 7 mps 732 mmHg 77%
    17:00 -3°C° 0.3 mm 7 mps 732 mmHg 76%
    18:00 -3°C° 0.3 mm 7 mps 732 mmHg 76%
    19:00 -4°C° 0 mm 7 mps 733 mmHg 75%
    20:00 -4°C° 0 mm 6 mps 733 mmHg 74%
    21:00 -5°C° 0 mm 6 mps 734 mmHg 73%
    22:00 -5°C° 0 mm 6 mps 735 mmHg 75%
    23:00 -5°C° 0 mm 6 mps 735 mmHg 76%

    Day after tomorrow, 26 January, Sunday

    Time Temperature Precipitation Wind Pressure Humidity
    00:00 -5°C° 0 mm 6 mps 736 mmHg 78%
    01:00 -5°C° 0 mm 6 mps 736 mmHg 80%
    02:00 -5°C° 0 mm 6 mps 737 mmHg 83%
    03:00 -5°C° 0 mm 6 mps 738 mmHg 86%
    04:00 -5°C° 0 mm 6 mps 738 mmHg 83%
    05:00 -5°C° 0 mm 6 mps 739 mmHg 80%
    06:00 -6°C° 0 mm 6 mps 740 mmHg 77%
    07:00 -6°C° 0 mm 6 mps 741 mmHg 78%
    08:00 -6°C° 0 mm 6 mps 742 mmHg 78%
    09:00 -6°C° 0 mm 5 mps 743 mmHg 79%
    10:00 -6°C° 0 mm 5 mps 743 mmHg 78%
    11:00 -5°C° 0 mm 5 mps 744 mmHg 76%
    12:00 -5°C° 0 mm 5 mps 745 mmHg 75%
    13:00 -5°C° 0 mm 5 mps 745 mmHg 74%
    14:00 -5°C° 0 mm 5 mps 746 mmHg 74%
    15:00 -3°C° 0 mm 4 mps 746 mmHg 73%
    16:00 -4°C° 0 mm 4 mps 746 mmHg 75%
    17:00 -4°C° 0 mm 4 mps 746 mmHg 77%
    18:00 -4°C° 0 mm 4 mps 746 mmHg 79%
    19:00 -4°C° 0 mm 4 mps 746 mmHg 80%
    20:00 -4°C° 0 mm 4 mps 746 mmHg 80%
    21:00 -5°C° 0 mm 5 mps 745 mmHg 81%
    22:00 -5°C° 0 mm 5 mps 745 mmHg 84%
    23:00 -4°C° 0 mm 5 mps 745 mmHg 86%

    27 January, Monday

    Time Temperature Precipitation Wind Pressure Humidity
    00:00 -4°C° 0 mm 6 mps 744 mmHg 89%
    01:00 -3°C° 0 mm 6 mps 744 mmHg 91%
    02:00 -3°C° 0 mm 6 mps 744 mmHg 93%
    03:00 -2°C° 0 mm 6 mps 743 mmHg 96%
    04:00 -2°C° 0.1 mm 6 mps 743 mmHg 96%
    05:00 -1°C° 0.1 mm 6 mps 743 mmHg 96%
    06:00 -1°C° 0.1 mm 6 mps 743 mmHg 96%
    07:00 -1°C° 0 mm 6 mps 744 mmHg 95%
    08:00 -1°C° 0 mm 6 mps 744 mmHg 94%
    09:00 0°C° 0 mm 5 mps 744 mmHg 93%
    10:00 0°C° 0.1 mm 5 mps 744 mmHg 94%
    11:00 0°C° 0.1 mm 5 mps 745 mmHg 94%
    12:00 0°C° 0.1 mm 4 mps 745 mmHg 94%
    13:00 0°C° 0 mm 5 mps 745 mmHg 94%
    14:00 0°C° 0 mm 5 mps 745 mmHg 93%
    15:00 0°C° 0 mm 5 mps 745 mmHg 93%
    16:00 -1°C° 0 mm 4 mps 745 mmHg 94%
    17:00 -1°C° 0 mm 4 mps 745 mmHg 95%
    18:00 -1°C° 0 mm 4 mps 745 mmHg 96%
    19:00 -1°C° 0 mm 4 mps 745 mmHg 97%
    20:00 -1°C° 0 mm 4 mps 745 mmHg 97%
    21:00 -2°C° 0 mm 4 mps 745 mmHg 97%
    22:00 -1°C° 0 mm 3 mps 745 mmHg 96%
    23:00 -1°C° 0 mm 3 mps 745 mmHg 96%

    28 January, Tuesday

    Time Temperature Precipitation Wind Pressure Humidity
    00:00 -1°C° 0 mm 3 mps 745 mmHg 96%
    01:00 -1°C° 0 mm 3 mps 745 mmHg 96%
    02:00 -1°C° 0 mm 3 mps 745 mmHg 96%
    03:00 -1°C° 0 mm 2 mps 745 mmHg 96%
    04:00 -1°C° 0.2 mm 2 mps 744 mmHg 96%
    05:00 -1°C° 0.2 mm 2 mps 744 mmHg 97%
    06:00 -1°C° 0.2 mm 2 mps 744 mmHg 97%
    07:00 -1°C° 0.2 mm 2 mps 744 mmHg 97%
    08:00 -1°C° 0.2 mm 2 mps 744 mmHg 97%
    09:00 -1°C° 0.2 mm 2 mps 744 mmHg 97%
    10:00 -1°C° 0.1 mm 2 mps 744 mmHg 97%
    11:00 -1°C° 0.1 mm 2 mps 744 mmHg 96%
    12:00 -1°C° 0.1 mm 3 mps 744 mmHg 96%
    13:00 -1°C° 0.1 mm 3 mps 743 mmHg 96%
    14:00 -1°C° 0.1 mm 3 mps 743 mmHg 96%
    15:00 -1°C° 0.1 mm 3 mps 743 mmHg 97%
    16:00 -1°C° 0.1 mm 3 mps 743 mmHg 97%
    17:00 -1°C° 0.1 mm 3 mps 743 mmHg 97%
    18:00 -1°C° 0.1 mm 3 mps 743 mmHg 97%
    19:00 -1°C° 0.2 mm 3 mps 743 mmHg 97%
    20:00 0°C° 0.2 mm 3 mps 743 mmHg 97%
    21:00 0°C° 0.2 mm 3 mps 742 mmHg 97%
    22:00 0°C° 0 mm 3 mps 742 mmHg 97%
    23:00 -1°C° 0 mm 4 mps 742 mmHg 97%

    29 January, Wednesday

    Time Temperature Precipitation Wind Pressure Humidity
    00:00 -1°C° 0 mm 4 mps 742 mmHg 97%
    01:00 -1°C° 0.1 mm 4 mps 742 mmHg 97%
    02:00 0°C° 0.1 mm 4 mps 741 mmHg 97%
    03:00 0°C° 0.1 mm 5 mps 741 mmHg 97%
    04:00 0°C° 0 mm 5 mps 741 mmHg 96%
    05:00 0°C° 0 mm 5 mps 740 mmHg 95%
    06:00 -1°C° 0 mm 6 mps 740 mmHg 95%
    07:00 -1°C° 0.4 mm 6 mps 739 mmHg 95%
    08:00 -1°C° 0.4 mm 6 mps 739 mmHg 96%
    09:00 -1°C° 0.4 mm 6 mps 738 mmHg 96%
    10:00 -1°C° 0.2 mm 6 mps 739 mmHg 96%
    11:00 -1°C° 0.2 mm 6 mps 739 mmHg 97%
    12:00 -1°C° 0.2 mm 6 mps 739 mmHg 97%
    13:00 +1°C° 0.2 mm 6 mps 739 mmHg 93%
    14:00 +1°C° 0.2 mm 5 mps 739 mmHg 89%
    15:00 +1°C° 0.2 mm 5 mps 739 mmHg 86%
    16:00 0°C° 0 mm 5 mps 739 mmHg 86%
    17:00 0°C° 0 mm 5 mps 740 mmHg 87%
    18:00 -1°C° 0 mm 5 mps 741 mmHg 88%
    19:00 -1°C° 0 mm 5 mps 741 mmHg 88%
    20:00 -1°C° 0 mm 5 mps 741 mmHg 89%
    21:00 -1°C° 0 mm 5 mps 741 mmHg 90%
    22:00 -1°C° 0 mm 5 mps 741 mmHg 90%
    23:00 -1°C° 0 mm 5 mps 741 mmHg 89%
    Show more